Weather History for KWRL - July, 2013

Change the Weather History Date:

Wednesday, July 31, 2013

  Actual Average Record
Temperature  
Mean Temperature 70 °F 73 °F  
Max Temperature 88 °F 90 °F 103 °F (1989)
Min Temperature 51 °F 56 °F 45 °F (1968)
Degree Days  
Heating Degree Days 0 0  
Month to date heating degree days 0 10  
Since 1 June heating degree days 45 106  
Since 1 July heating degree days 0 13  
Cooling Degree Days 5 8  
Month to date cooling degree days 333 229  
Year to date cooling degree days 483 325  
Since 1 June cooling degree days 466 313  
Growing Degree Days 18 (Base 50)    
Moisture  
Dew Point 47 °F    
Average Humidity 52    
Maximum Humidity 83    
Minimum Humidity 21    
Precipitation  
Precipitation T in 0.02 in 0.63 in (1984)
Month to date precipitation 0.30 0.71  
Year to date precipitation 3.08 5.02  
Sea Level Pressure  
Sea Level Pressure 30.10 in    
Wind  
Wind Speed 5 mph (SE)    
Max Wind Speed 9 mph    
Max Gust Speed 36 mph    
Visibility 10 miles    
Events Rain , Thunderstorm    
T = Trace of Precipitation, MM = Missing Value Source: NWS Daily Summary

Daily Weather History Graph

Daily Weather History Graph

Search for Another Location

Airport or City:

Trip Planner

Search our weather history database for the weather conditions in past years. The results will help you decide how hot, cold, wet, or windy it might be!

Date:

Astronomy

Jul. 31, 2013 Rise Set
Actual Time 5:59 AM MDT 8:36 PM MDT
Civil Twilight 5:26 AM MDT 9:09 PM MDT
Nautical Twilight 4:44 AM MDT 9:50 PM MDT
Astronomical Twilight 3:57 AM MDT 10:37 PM MDT
Moon 12:56 AM MDT (7/31) 3:56 PM MDT (7/31)
Length of Visible Light 15h 42m
Length of Day
14h 37m
Waning Crescent, 31% of the Moon is Illuminated
Jul 31
Waning Crescent
Aug 6
New
Aug 14
First Quarter
Aug 20
Full
Aug 28
Last Quarter

Hourly Weather History & Observations

Time (MDT) Temp. Dew Point Humidity Pressure Visibility Wind Dir Wind Speed Gust Speed Precip Events Conditions
12:53 AM 59.0 °F 48.9 °F 69% 30.16 in 10.0 mi ENE 5.8 mph - N/A   Clear
1:53 AM 59.0 °F 48.0 °F 67% 30.20 in 10.0 mi SSE 6.9 mph - N/A   Clear
3:53 AM 53.1 °F 48.0 °F 83% 30.19 in 10.0 mi Calm Calm - N/A   Clear
4:53 AM 54.0 °F 46.0 °F 75% 30.19 in 10.0 mi North - - N/A   Clear
5:53 AM 51.1 °F 46.0 °F 83% 30.20 in 10.0 mi South 4.6 mph - N/A   Clear
7:53 AM 60.1 °F 48.0 °F 64% 30.20 in 10.0 mi Calm Calm - N/A   Clear
8:53 AM 62.1 °F 48.9 °F 62% 30.22 in 10.0 mi Calm Calm - N/A   Clear
11:53 AM 78.1 °F 48.0 °F 35% 30.14 in 10.0 mi Variable 3.5 mph - N/A   Clear
12:53 PM 81.0 °F 46.9 °F 30% 30.11 in 10.0 mi Variable 4.6 mph - N/A   Clear
1:53 PM 84.0 °F 48.0 °F 28% 30.07 in 10.0 mi NW 6.9 mph - N/A   Clear
2:53 PM 80.1 °F 50.0 °F 35% 30.09 in 10.0 mi West 8.1 mph - N/A   Clear
3:53 PM 84.0 °F 43.0 °F 24% 30.04 in 10.0 mi NNW 3.5 mph - N/A   Scattered Clouds
4:53 PM 86.0 °F 42.1 °F 21% 30.00 in 10.0 mi Variable 3.5 mph - N/A   Clear
5:53 PM 84.9 °F 44.1 °F 24% 30.01 in 10.0 mi NNW 9.2 mph - N/A   Partly Cloudy
6:53 PM 82.9 °F 46.9 °F 28% 29.99 in 10.0 mi North 4.6 mph - 0.00 in Rain Light Rain
7:53 PM 79.0 °F 52.0 °F 39% 30.00 in 10.0 mi ESE 6.9 mph - 0.00 in   Mostly Cloudy
8:23 PM 78.8 °F 46.4 °F 32% 30.14 in 10.0 mi South 21.9 mph 35.7 mph 0.00 in Rain , Thunderstorm Light Rain
8:38 PM 80.6 °F 42.8 °F 26% 30.12 in 10.0 mi SE 11.5 mph - 0.00 in   Mostly Cloudy
8:53 PM 79.0 °F 44.1 °F 29% 30.01 in 10.0 mi South 9.2 mph - 0.00 in   Mostly Cloudy
9:53 PM 75.9 °F 44.1 °F 32% 30.00 in 10.0 mi SE 9.2 mph - N/A   Clear
10:53 PM 70.0 °F 50.0 °F 49% 30.00 in 10.0 mi West 5.8 mph - 0.00 in   Partly Cloudy
11:53 PM 70.0 °F 51.1 °F 51% 30.02 in 10.0 mi NNE 4.6 mph - 0.00 in   Partly Cloudy